| time (UTC) | temp F | wind direction | speed MPH | gust MPH | rain 1hr in | rain 24hr in | rain mn in | humidity % | barometer mb |
| 20260906011514 | 84 | 218 | 0.0 | 2.0 | 0.00 | 0.00 | 0.00 | 81 | 1010.4 |
| 20260906010014 | 85 | 217 | 0.0 | 2.0 | 0.00 | 0.00 | 0.00 | 80 | 1010.2 |
| 20260906004512 | 85 | 182 | 0.0 | 3.0 | 0.00 | 0.00 | 0.00 | 79 | 1010.1 |
| 20260906003013 | 86 | 165 | 0.0 | 3.0 | 0.00 | 0.00 | 0.00 | 78 | 1010.1 |
| 20260906001512 | 86 | 90 | 1.0 | 3.0 | 0.00 | 0.00 | 0.00 | 77 | 1010.1 |
| 20260906000012 | 87 | 228 | 0.0 | 3.0 | 0.00 | 0.00 | 0.00 | 76 | 1010.2 |
| 20260905234510 | 88 | 182 | 0.0 | 6.0 | 0.00 | 0.00 | 0.00 | 76 | 1010.2 |
| 20260905233021 | 88 | 136 | 1.0 | 3.0 | 0.00 | 0.00 | 0.00 | 75 | 1010.1 |
| 20260905231510 | 89 | 355 | 0.0 | 6.0 | 0.00 | 0.00 | 0.00 | 74 | 1010.0 |
| 20260905230008 | 90 | 269 | 1.0 | 8.0 | 0.00 | 0.00 | 0.00 | 71 | 1010.0 |
| 20260905224509 | 92 | 176 | 1.0 | 4.0 | 0.00 | 0.00 | 0.00 | 68 | 1010.0 |
| 20260905223007 | 93 | 225 | 0.0 | 4.0 | 0.00 | 0.00 | 0.00 | 66 | 1009.7 |
| 20260905221509 | 94 | 219 | 2.0 | 5.0 | 0.00 | 0.00 | 0.00 | 63 | 1009.6 |
| 20260905220006 | 96 | 117 | 0.0 | 2.0 | 0.00 | 0.00 | 0.00 | 56 | 1009.5 |
| 20260905214505 | 97 | 117 | 0.0 | 2.0 | 0.00 | 0.00 | 0.00 | 51 | 1009.4 |
| 20260905213003 | 98 | 117 | 1.0 | 3.0 | 0.00 | 0.00 | 0.00 | 51 | 1009.5 |
| 20260905211502 | 98 | 186 | 0.0 | 3.0 | 0.00 | 0.00 | 0.00 | 52 | 1009.7 |
| 20260905210100 | 98 | 301 | 0.0 | 3.0 | 0.00 | 0.00 | 0.00 | 54 | 1009.7 |
| 20260905204556 | 98 | 159 | 1.0 | 3.0 | 0.00 | 0.00 | 0.00 | 55 | 1010.0 |
| 20260905203054 | 99 | 74 | 2.0 | 6.0 | 0.00 | 0.00 | 0.00 | 49 | 1010.0 |
| 20260905201550 | 99 | 86 | 1.0 | 7.0 | 0.00 | 0.00 | 0.00 | 49 | 1010.1 |
| 20260905200053 | 99 | 168 | 2.0 | 6.0 | 0.00 | 0.00 | 0.00 | 48 | 1010.2 |
| 20260905194544 | 98 | 89 | 0.0 | 4.0 | 0.00 | 0.00 | 0.00 | 50 | 1010.2 |
| 20260905193042 | 98 | 269 | 1.0 | 4.0 | 0.00 | 0.00 | 0.00 | 50 | 1010.4 |
| 20260905191539 | 97 | 76 | 1.0 | 5.0 | 0.00 | 0.00 | 0.00 | 48 | 1010.8 |
| 20260905190037 | 97 | 205 | 1.0 | 4.0 | 0.00 | 0.00 | 0.00 | 54 | 1010.9 |
| 20260905184538 | 96 | 242 | 0.0 | 4.0 | 0.00 | 0.00 | 0.00 | 55 | 1011.3 |
| 20260905183036 | 97 | 148 | 0.0 | 3.0 | 0.00 | 0.00 | 0.00 | 54 | 1011.5 |
| 20260905181530 | 98 | 5 | 0.0 | 7.0 | 0.00 | 0.00 | 0.00 | 51 | 1011.8 |
| 20260905180025 | 97 | 68 | 1.0 | 4.0 | 0.00 | 0.00 | 0.00 | 53 | 1012.0 |
| 20260905174532 | 97 | 79 | 2.0 | 6.0 | 0.00 | 0.00 | 0.00 | 54 | 1012.2 |
| 20260905173024 | 97 | 113 | 2.0 | 6.0 | 0.00 | 0.00 | 0.00 | 53 | 1012.4 |
| 20260905171517 | 97 | 79 | 2.0 | 7.0 | 0.00 | 0.00 | 0.00 | 53 | 1012.7 |
| 20260905170013 | 96 | 87 | 1.0 | 6.0 | 0.00 | 0.00 | 0.00 | 56 | 1012.8 |
| 20260905164511 | 96 | 57 | 0.0 | 5.0 | 0.00 | 0.00 | 0.00 | 56 | 1013.1 |
| 20260905163008 | 95 | 105 | 2.0 | 5.0 | 0.00 | 0.00 | 0.00 | 58 | 1013.2 |
| 20260905161504 | 93 | 330 | 3.0 | 5.0 | 0.00 | 0.00 | 0.00 | 60 | 1013.3 |
| 20260905160100 | 93 | 185 | 0.0 | 4.0 | 0.00 | 0.00 | 0.00 | 61 | 1013.2 |
| 20260905154557 | 93 | 333 | 1.0 | 5.0 | 0.00 | 0.00 | 0.00 | 63 | 1013.2 |
| 20260905153054 | 92 | 226 | 0.0 | 3.0 | 0.00 | 0.00 | 0.00 | 65 | 1013.2 |
| 20260905151548 | 91 | 79 | 0.0 | 2.0 | 0.00 | 0.00 | 0.00 | 68 | 1013.2 |
| 20260905150043 | 90 | 254 | 1.0 | 4.0 | 0.00 | 0.00 | 0.00 | 69 | 1013.3 |
| 20260905144547 | 89 | 71 | 0.0 | 2.0 | 0.00 | 0.00 | 0.00 | 74 | 1013.3 |
| 20260905143037 | 87 | 71 | 0.0 | 3.0 | 0.00 | 0.00 | 0.00 | 77 | 1013.5 |
| 20260905141553 | 87 | 70 | 0.0 | 3.0 | 0.00 | 0.00 | 0.00 | 79 | 1013.5 |
| 20260905140026 | 85 | 70 | 0.0 | 2.0 | 0.00 | 0.00 | 0.00 | 82 | 1013.6 |
| 20260905134521 | 83 | 70 | 0.0 | 1.0 | 0.00 | 0.00 | 0.00 | 85 | 1013.7 |
| 20260905133019 | 81 | 70 | 1.0 | 3.0 | 0.00 | 0.00 | 0.00 | 87 | 1013.6 |
| 20260905131513 | 79 | 70 | 0.0 | 3.0 | 0.00 | 0.00 | 0.00 | 91 | 1013.7 |
| 20260905130008 | 76 | 70 | 0.0 | 0.0 | 0.00 | 0.00 | 0.00 | 96 | 1013.9 |
| 20260905124504 | 75 | 70 | 0.0 | 0.0 | 0.00 | 0.00 | 0.00 | 97 | 1013.9 |
| 20260905123003 | 74 | 70 | 0.0 | 0.0 | 0.00 | 0.00 | 0.00 | 98 | 1014.0 |
| 20260905121601 | 74 | 70 | 0.0 | 1.0 | 0.00 | 0.00 | 0.00 | 98 | 1013.7 |
| 20260905120058 | 73 | 70 | 0.0 | 0.0 | 0.00 | 0.00 | 0.00 | 98 | 1013.6 |
| 20260905114626 | 73 | 70 | 0.0 | 0.0 | 0.00 | 0.00 | 0.00 | 97 | 1013.6 |
| 20260905113056 | 73 | 70 | 0.0 | 1.0 | 0.00 | 0.00 | 0.00 | 97 | 1013.5 |
| 20260905111554 | 74 | 70 | 0.0 | 0.0 | 0.00 | 0.00 | 0.00 | 97 | 1013.3 |
| 20260905110050 | 74 | 70 | 0.0 | 0.0 | 0.00 | 0.00 | 0.00 | 97 | 1013.3 |
| 20260905104552 | 74 | 70 | 0.0 | 0.0 | 0.00 | 0.00 | 0.00 | 96 | 1013.3 |
| 20260905103149 | 74 | 70 | 0.0 | 0.0 | 0.00 | 0.00 | 0.00 | 96 | 1013.2 |
| 20260905101548 | 74 | 70 | 0.0 | 1.0 | 0.00 | 0.00 | 0.00 | 96 | 1013.2 |
| 20260905094544 | 74 | 70 | 0.0 | 0.0 | 0.00 | 0.00 | 0.00 | 96 | 1013.0 |
| 20260905093044 | 74 | 70 | 0.0 | 1.0 | 0.00 | 0.00 | 0.00 | 95 | 1013.0 |
| 20260905091555 | 75 | 70 | 0.0 | 0.0 | 0.00 | 0.00 | 0.00 | 95 | 1013.0 |
| 20260905090040 | 75 | 70 | 0.0 | 1.0 | 0.00 | 0.00 | 0.00 | 94 | 1013.1 |
| 20260905084540 | 75 | 70 | 0.0 | 0.0 | 0.00 | 0.00 | 0.00 | 93 | 1013.0 |
| 20260905083037 | 75 | 70 | 0.0 | 0.0 | 0.00 | 0.00 | 0.00 | 93 | 1012.9 |
| 20260905081535 | 76 | 70 | 0.0 | 1.0 | 0.00 | 0.00 | 0.00 | 92 | 1012.8 |
| 20260905080039 | 76 | 70 | 0.0 | 1.0 | 0.00 | 0.00 | 0.00 | 91 | 1012.7 |
| 20260905074543 | 77 | 70 | 0.0 | 1.0 | 0.00 | 0.00 | 0.00 | 90 | 1012.8 |
| 20260905073051 | 77 | 70 | 0.0 | 1.0 | 0.00 | 0.00 | 0.00 | 90 | 1012.6 |
| 20260905071533 | 76 | 97 | 0.0 | 0.0 | 0.00 | 0.00 | 0.00 | 91 | 1012.4 |
| 20260905070032 | 76 | 97 | 0.0 | 0.0 | 0.00 | 0.00 | 0.00 | 91 | 1012.5 |
| 20260905064529 | 76 | 97 | 0.0 | 0.0 | 0.00 | 0.00 | 0.00 | 92 | 1012.5 |
| 20260905063028 | 77 | 97 | 0.0 | 0.0 | 0.00 | 0.00 | 0.00 | 92 | 1012.7 |
| 20260905061526 | 77 | 97 | 0.0 | 0.0 | 0.00 | 0.00 | 0.00 | 92 | 1012.7 |
| 20260905060025 | 77 | 97 | 0.0 | 0.0 | 0.00 | 0.00 | 0.00 | 92 | 1012.9 |
| 20260905054524 | 77 | 97 | 0.0 | 0.0 | 0.00 | 0.00 | 0.00 | 92 | 1012.8 |
| 20260905053032 | 78 | 97 | 0.0 | 0.0 | 0.00 | 0.00 | 0.00 | 91 | 1012.8 |
| 20260905051521 | 78 | 97 | 0.0 | 1.0 | 0.00 | 0.00 | 0.00 | 91 | 1012.9 |
| 20260905050021 | 78 | 97 | 0.0 | 1.0 | 0.00 | 0.00 | 0.00 | 90 | 1012.8 |
| 20260905044520 | 78 | 97 | 0.0 | 1.0 | 0.00 | 0.00 | 0.00 | 90 | 1013.0 |
| 20260905043017 | 78 | 97 | 0.0 | 0.0 | 0.00 | 0.00 | 0.00 | 89 | 1012.9 |
| 20260905041516 | 79 | 98 | 0.0 | 0.0 | 0.00 | 0.00 | 0.00 | 88 | 1012.9 |
| 20260905040019 | 79 | 97 | 0.0 | 0.0 | 0.00 | 0.00 | 0.00 | 87 | 1012.9 |
| 20260905034514 | 80 | 98 | 0.0 | 0.0 | 0.00 | 0.00 | 0.00 | 86 | 1013.0 |
| 20260905033026 | 80 | 97 | 0.0 | 0.0 | 0.00 | 0.00 | 0.00 | 86 | 1013.0 |
| 20260905031521 | 80 | 97 | 0.0 | 0.0 | 0.00 | 0.00 | 0.00 | 85 | 1013.0 |
| 20260905030012 | 81 | 98 | 0.0 | 0.0 | 0.00 | 0.00 | 0.00 | 84 | 1013.2 |
| 20260905024512 | 81 | 97 | 0.0 | 0.0 | 0.00 | 0.00 | 0.00 | 83 | 1013.4 |
| 20260905023036 | 82 | 97 | 0.0 | 0.0 | 0.00 | 0.00 | 0.00 | 82 | 1013.4 |
| 20260905021511 | 83 | 98 | 0.0 | 0.0 | 0.00 | 0.00 | 0.00 | 80 | 1013.4 |
| 20260905020019 | 83 | 97 | 0.0 | 0.0 | 0.00 | 0.00 | 0.00 | 79 | 1013.3 |
| 20260905014510 | 83 | 98 | 0.0 | 0.0 | 0.00 | 0.00 | 0.00 | 77 | 1013.2 |
| 20260905013009 | 84 | 98 | 0.0 | 0.0 | 0.00 | 0.00 | 0.00 | 76 | 1013.1 |